Location: *
(46.1333°S, 161.2167°W)
Time: 04:36:25
(UTC+00:00)

Cosmos 1689 Rocket - Pass Details

Date: 15 July 2020
Orbit: 365 x 382 km, 97.5° (Epoch: 10 August)

Event Time Altitude Azimuth Distance (km) Brightness Sun altitude
Rises 16:06:16 0° 162° (SSE) 2,307 6.1 -22.8°
Reaches altitude 10° 16:08:19 10° 156° (SSE) 1,445 5.1 -22.5°
Maximum altitude 16:11:18 46° 80° (E) 538 3.2 -22.0°
Drops below altitude 10° 16:14:15 10° 4° (N) 1,426 5.1 -21.4°
Sets 16:16:15 0° 358° (N) 2,273 6.1 -21.1°
